Location: ????????
(54.9045°N, 39.1041°E)
Time: 20:23:43
(UTC+00:00)

Thor Agena Rocket - Visible Passes

Search period start: 22 July 2024 00:00
Search period end: 01 August 2024 00:00
Orbit: 757 x 804 km, 99.1° (Epoch: 21 July)

Date Brightness Start Highest point End Pass type
(mag) Time Alt. Az. Time Alt. Az. Time Alt. Az.
24 Jul 6.0 00:08:13 10° NE 00:11:22 16° E 00:14:31 10° SE visible
27 Jul 6.0 00:10:46 10° NE 00:14:00 17° E 00:17:13 10° SE visible
30 Jul 6.0 00:13:18 10° NE 00:16:37 17° E 00:19:54 10° SE visible
